Showing default

ICEYE-X5, 44389

Orbit data source: Space-Track

ICEYE-X5, 44389 is a payload satellite owned by ICEYE (FI) in SSO that was launched on Fri, 05 Jul 2019 UTC via a SOYUZ-2-1B launch vehicle from the Vostochny Cosmodrome (VOSTO). Payload-class satellites include a variety of spacecraft equipped with specific instruments for various scientific and technological missions. These include communications satellites like Starlink; space stations such as the ISS; scientific satellites like the Hubble; Earth observation satellites from companies like Planet Labs, Umbra, and HawkEye 360; GPS; miniature CubeSats for education and research; and military/defense satellites.

Loading next visibility...
Identifier
44389, 2019-038C
Orbit
SSO
Country
Flag of FIFI / FIN
Related business
Manufacturer
ICEYE
Mission
Non-operational Commercial Radar Imaging
Bus & Motor
ICEYE, Unknown motor
Mass
80 kg wet, 80 kg dry
Launch date (UTC)
2019-07-05 (7 years ago)
Launch vehicle
SOYUZ-2-1B
Launch site
Vostochny Cosmodrome (VOSTO)
Object type
Payload
Rocket body
Debris
Shape & HBR
Box + 1 Pan, 1.6 m
Radar Cross Section
1.837 m², Large (>1 m²)

Expand to show TLE details & history
Last TLE update: 8 hours ago

TLE from 8 hours ago
0 ICEYE-X5
1 44389U 19038C   26072.62789513  .00036648  00000-0  70286-3 0  9990
2 44389  97.8842 118.2723 0006443 226.3021 133.7694 15.47897315368140
Epoch: 2026-03-13T15:04Z
TLE epoch observation values (Epoch: 2026-03-13T15:04:10.139Z)
Latitude
-0.00007°
Longitude
80.96936°
Altitude
429.025 km
Speed
7.652 km/s
True Right ascension
07h 53m 05s
True Declination
0° 00' 00"
Sunlit
Object was in full shadow at epoch
Visualization orbit readout
Latitude
Unknown
Longitude
Unknown
Altitude
Unknown
Speed
Unknown
Apparent Right ascension
Unknown
Apparent Declination
Unknown
Sunlit
N/A
Visualization observer readout
Local Sidereal Time
03:53:18
Azimuth
Unknown
Elevation
Unknown
Doppler factor
Unknown
Orbital elements
Apogee altitude
424.208 km
Perigee altitude
415.448 km
Semi-major axis
6,797.965 km
Eccentricity
0.00064
Inclination
97.8842°
RAAN
118.2723°
Arg. of periapsis
226.3021°
True anomaly
133.82269°
Mean anomaly
133.7694°
Eccentric anomaly
133.79605°
Mean motion
3.87235 °/min
Orbital period
92.97 mins
BSTAR
0.00070286
Loading maneuver chart data...
Computing Atmospheric mass density...

Documentation

Showing up to 5 results
|